Time,TemperatureF,DewpointF,PressureIn,WindDirection,WindDirectionDegrees,WindSpeedMPH,WindSpeedGustMPH,Humidity,HourlyPrecipIn,Conditions,Clouds,dailyrainin,SoftwareType,DateUTC
2013-08-19 00:11:00,59.0,-99.9,-100.00,NE,36,5.0,6.0,-999,-99.99,,,-99.99,,2013-08-19 06:11:00,
2013-08-19 00:21:00,59.0,-99.9,-100.00,NE,36,5.0,6.0,-999,-99.99,,,-99.99,,2013-08-19 06:21:00,
2013-08-19 01:12:00,57.0,-99.9,-100.00,NE,34,0.0,0.0,-999,-99.99,,,-99.99,,2013-08-19 07:12:00,
2013-08-19 01:21:00,57.0,-99.9,-100.00,NE,34,0.0,0.0,-999,-99.99,,,-99.99,,2013-08-19 07:21:00,
2013-08-19 04:12:00,54.0,-99.9,-100.00,NNE,21,3.0,3.0,-999,-99.99,,,-99.99,,2013-08-19 10:12:00,
2013-08-19 04:23:00,54.0,-99.9,-100.00,NNE,21,3.0,3.0,-999,-99.99,,,-99.99,,2013-08-19 10:23:00,
2013-08-19 05:20:00,54.0,-99.9,-100.00,NNE,29,3.0,4.0,-999,-99.99,,,-99.99,,2013-08-19 11:20:00,
2013-08-19 06:11:00,54.0,-99.9,-100.00,NNE,29,3.0,4.0,-999,-99.99,,,-99.99,,2013-08-19 12:11:00,
2013-08-19 06:20:00,59.0,-99.9,-100.00,North,1,7.0,7.0,-999,-99.99,,,-99.99,,2013-08-19 12:20:00,
2013-08-19 07:13:00,59.0,-99.9,-100.00,North,1,7.0,7.0,-999,-99.99,,,-99.99,,2013-08-19 13:13:00,
2013-08-19 07:20:00,59.0,-99.9,-100.00,East,95,4.0,5.0,-999,-99.99,,,-99.99,,2013-08-19 13:20:00,
2013-08-19 08:11:00,59.0,-99.9,-100.00,East,95,4.0,5.0,-999,-99.99,,,-99.99,,2013-08-19 14:11:00,
2013-08-19 08:20:00,66.0,-99.9,-100.00,North,3,6.0,8.0,-999,-99.99,,,-99.99,,2013-08-19 14:20:00,
2013-08-19 09:11:00,66.0,-99.9,-100.00,North,3,6.0,8.0,-999,-99.99,,,-99.99,,2013-08-19 15:11:00,
2013-08-19 09:20:00,70.0,-99.9,-100.00,East,85,6.0,10.0,-999,-99.99,,,-99.99,,2013-08-19 15:20:00,
2013-08-19 10:13:00,70.0,-99.9,-100.00,East,85,6.0,10.0,-999,-99.99,,,-99.99,,2013-08-19 16:13:00,
2013-08-19 10:20:00,72.0,-99.9,-100.00,East,80,7.0,9.0,-999,-99.99,,,-99.99,,2013-08-19 16:20:00,
2013-08-19 11:13:00,72.0,-99.9,-100.00,East,80,7.0,9.0,-999,-99.99,,,-99.99,,2013-08-19 17:13:00,
2013-08-19 11:20:00,73.0,-99.9,-100.00,North,0,6.0,7.0,-999,-99.99,,,-99.99,,2013-08-19 17:20:00,
2013-08-19 12:19:00,73.0,-99.9,-100.00,North,0,6.0,7.0,-999,-99.99,,,-99.99,,2013-08-19 18:19:00,
2013-08-19 12:20:00,-999.0,-99.9,-100.00,East,94,5.0,6.0,-999,-99.99,,,-99.99,,2013-08-19 18:20:00,
2013-08-19 13:16:00,77.0,-99.9,-100.00,East,94,5.0,6.0,-999,-99.99,,,-99.99,,2013-08-19 19:16:00,
2013-08-19 13:20:00,77.0,-99.9,-100.00,NE,51,2.0,5.0,-999,-99.99,,,-99.99,,2013-08-19 19:20:00,
2013-08-19 14:20:00,79.0,-99.9,-100.00,NE,47,0.0,9.0,-999,-99.99,,,-99.99,,2013-08-19 20:20:00,
2013-08-19 15:16:00,79.0,-99.9,-100.00,NE,47,0.0,9.0,-999,-99.99,,,-99.99,,2013-08-19 21:16:00,
2013-08-19 15:20:00,81.0,-99.9,-100.00,NE,44,2.0,7.0,-999,-99.99,,,-99.99,,2013-08-19 21:20:00,
2013-08-19 16:20:00,79.0,-99.9,-100.00,North,5,1.0,4.0,-999,-99.99,,,-99.99,,2013-08-19 22:20:00,
2013-08-19 17:15:00,79.0,-99.9,-100.00,North,5,1.0,4.0,-999,-99.99,,,-99.99,,2013-08-19 23:15:00,
2013-08-19 17:20:00,81.0,-99.9,-100.00,NE,56,4.0,5.0,-999,-99.99,,,-99.99,,2013-08-19 23:20:00,
2013-08-19 18:11:00,81.0,-99.9,-100.00,NE,56,4.0,5.0,-999,-99.99,,,-99.99,,2013-08-20 00:11:00,
2013-08-19 18:20:00,77.0,-99.9,-100.00,NE,41,5.0,8.0,-999,-99.99,,,-99.99,,2013-08-20 00:20:00,
2013-08-19 19:11:00,77.0,-99.9,-100.00,NE,41,5.0,8.0,-999,-99.99,,,-99.99,,2013-08-20 01:11:00,
2013-08-19 19:20:00,75.0,-99.9,-100.00,NNE,24,5.0,6.0,-999,-99.99,,,-99.99,,2013-08-20 01:20:00,
2013-08-19 20:11:00,75.0,-99.9,-100.00,NNE,24,5.0,6.0,-999,-99.99,,,-99.99,,2013-08-20 02:11:00,
2013-08-19 21:11:00,70.0,-99.9,-100.00,North,8,1.0,3.0,-999,-99.99,,,-99.99,,2013-08-20 03:11:00,
2013-08-19 22:13:00,68.0,-99.9,-100.00,NNE,31,1.0,3.0,-999,-99.99,,,-99.99,,2013-08-20 04:13:00,
2013-08-19 23:12:00,68.0,-99.9,-100.00,North,3,1.0,3.0,-999,-99.99,,,-99.99,,2013-08-20 05:12:00,